Location: Demmingen
(48.6757°N, 10.4375°E)
Time: 21:18:41
(UTC+00:00)

SL-16 R/B - Pass Details

Date: 12 August 2024
Orbit: 842 x 845 km, 71.0° (Epoch: 10 September)

Event Time Altitude Azimuth Distance (km) Brightness Sun altitude
Exits shadow 00:28:13 28° 269° (W) 1,554 3.4 -24.8°
Maximum altitude 00:30:16 36° 310° (NW) 1,317 3.3 -24.7°
Drops below altitude 10° 00:35:29 10° 16° (NNE) 2,476 5.7 -24.5°
Sets 00:38:10 0° 25° (NNE) 3,415 6.8 -24.3°
